{"data":{"norad_id":68383,"epoch":"2026-05-25T02:50:14.531136Z","epoch_age_seconds":65002,"freshness":"FRESH","line1":"1 68383U 26063D   26145.11822374  .00011270  00000+0  35089-3 0  9999","line2":"2 68383  97.2852 287.6167 0000451  84.5023 275.6271 15.33445399  9603","mean_motion":15.33445399,"eccentricity":4.51e-5,"inclination_deg":97.2852,"raan_deg":287.6167,"arg_perigee_deg":84.5023,"mean_anomaly_deg":275.6271,"bstar":0.00035089,"rev_number":960,"period_min":93.906180222593,"perigee_km":465.23333741278,"apogee_km":465.85063725744,"semimajor_km":6843.6789873351,"source":"CELESTRAK","updated_at":"2026-05-25T13:38:21.928697Z"}}